Stündliche Wetter Otrez

Heute, 10 April, Samstag

Zeit Temperatur Niederschläge Wind Luftdruck Luftfeuchtigkeit
00:00 +1°C° 0 mm 3 m/S 754 mmHg 76%
01:00 +1°C° 0 mm 3 m/S 754 mmHg 78%
02:00 +1°C° 0 mm 3 m/S 754 mmHg 80%
03:00 +1°C° 0 mm 3 m/S 755 mmHg 82%
04:00 0°C° 0 mm 3 m/S 755 mmHg 82%
05:00 0°C° 0 mm 3 m/S 755 mmHg 83%
06:00 0°C° 0 mm 3 m/S 755 mmHg 83%
07:00 +1°C° 0 mm 3 m/S 755 mmHg 75%
08:00 +3°C° 0 mm 4 m/S 755 mmHg 68%
09:00 +4°C° 0 mm 4 m/S 755 mmHg 60%
10:00 +5°C° 0 mm 4 m/S 755 mmHg 57%
11:00 +6°C° 0 mm 5 m/S 754 mmHg 54%
12:00 +6°C° 0 mm 5 m/S 754 mmHg 50%
13:00 +7°C° 0 mm 5 m/S 754 mmHg 50%
14:00 +7°C° 0 mm 5 m/S 754 mmHg 49%
15:00 +7°C° 0 mm 5 m/S 754 mmHg 49%
16:00 +7°C° 0 mm 4 m/S 754 mmHg 54%
17:00 +6°C° 0 mm 4 m/S 754 mmHg 59%
18:00 +5°C° 0 mm 4 m/S 754 mmHg 64%
19:00 +4°C° 0 mm 4 m/S 754 mmHg 71%
20:00 +4°C° 0 mm 3 m/S 754 mmHg 77%
21:00 +3°C° 0 mm 3 m/S 754 mmHg 84%
22:00 +2°C° 0 mm 3 m/S 754 mmHg 86%
23:00 +2°C° 0 mm 3 m/S 754 mmHg 87%

Morgen, 11 April, Sonntag

Zeit Temperatur Niederschläge Wind Luftdruck Luftfeuchtigkeit
00:00 +1°C° 0 mm 3 m/S 754 mmHg 89%
01:00 +1°C° 0 mm 3 m/S 754 mmHg 88%
02:00 +1°C° 0 mm 3 m/S 754 mmHg 87%
03:00 +1°C° 0 mm 3 m/S 754 mmHg 85%
04:00 0°C° 0 mm 3 m/S 755 mmHg 85%
05:00 0°C° 0 mm 3 m/S 755 mmHg 85%
06:00 0°C° 0 mm 3 m/S 755 mmHg 85%
07:00 0°C° 0 mm 4 m/S 756 mmHg 77%
08:00 +2°C° 0 mm 5 m/S 756 mmHg 69%
09:00 +3°C° 0 mm 5 m/S 756 mmHg 60%
10:00 +6°C° 0 mm 5 m/S 756 mmHg 55%
11:00 +7°C° 0 mm 6 m/S 756 mmHg 49%
12:00 +9°C° 0 mm 6 m/S 756 mmHg 44%
13:00 +10°C° 0 mm 6 m/S 756 mmHg 45%
14:00 +10°C° 0 mm 6 m/S 756 mmHg 46%
15:00 +11°C° 0 mm 6 m/S 756 mmHg 47%
16:00 +10°C° 0.1 mm 6 m/S 756 mmHg 56%
17:00 +9°C° 0.1 mm 5 m/S 757 mmHg 64%
18:00 +8°C° 0.1 mm 5 m/S 757 mmHg 73%
19:00 +7°C° 0.1 mm 5 m/S 757 mmHg 78%
20:00 +6°C° 0.1 mm 5 m/S 757 mmHg 82%
21:00 +6°C° 0.1 mm 5 m/S 757 mmHg 87%
22:00 +6°C° 0 mm 5 m/S 757 mmHg 89%
23:00 +5°C° 0 mm 5 m/S 757 mmHg 90%

übermorgen, 12 April, Montag

Zeit Temperatur Niederschläge Wind Luftdruck Luftfeuchtigkeit
00:00 +5°C° 0 mm 4 m/S 757 mmHg 92%
01:00 +5°C° 0 mm 4 m/S 757 mmHg 92%
02:00 +5°C° 0 mm 4 m/S 756 mmHg 93%
03:00 +5°C° 0 mm 4 m/S 756 mmHg 93%
04:00 +5°C° 0 mm 4 m/S 756 mmHg 94%
05:00 +5°C° 0 mm 4 m/S 756 mmHg 94%
06:00 +5°C° 0 mm 4 m/S 756 mmHg 94%
07:00 +6°C° 0 mm 4 m/S 756 mmHg 89%
08:00 +7°C° 0 mm 4 m/S 756 mmHg 83%
09:00 +9°C° 0 mm 5 m/S 756 mmHg 77%
10:00 +12°C° 0 mm 4 m/S 756 mmHg 70%
11:00 +14°C° 0 mm 4 m/S 756 mmHg 62%
12:00 +18°C° 0 mm 4 m/S 756 mmHg 54%
13:00 +19°C° 0 mm 5 m/S 756 mmHg 49%
14:00 +20°C° 0 mm 5 m/S 756 mmHg 44%
15:00 +21°C° 0 mm 5 m/S 755 mmHg 40%
16:00 +20°C° 0 mm 5 m/S 755 mmHg 43%
17:00 +19°C° 0 mm 4 m/S 755 mmHg 47%
18:00 +18°C° 0 mm 4 m/S 755 mmHg 51%
19:00 +15°C° 0 mm 4 m/S 755 mmHg 57%
20:00 +14°C° 0 mm 4 m/S 756 mmHg 63%
21:00 +13°C° 0 mm 4 m/S 756 mmHg 69%
22:00 +12°C° 0 mm 4 m/S 756 mmHg 72%
23:00 +11°C° 0 mm 4 m/S 756 mmHg 75%

13 April, Dienstag

Zeit Temperatur Niederschläge Wind Luftdruck Luftfeuchtigkeit
00:00 +10°C° 0 mm 4 m/S 756 mmHg 77%
01:00 +10°C° 0 mm 4 m/S 756 mmHg 77%
02:00 +9°C° 0 mm 3 m/S 756 mmHg 76%
03:00 +8°C° 0 mm 3 m/S 756 mmHg 75%
04:00 +8°C° 0 mm 3 m/S 756 mmHg 74%
05:00 +6°C° 0 mm 4 m/S 756 mmHg 73%
06:00 +6°C° 0 mm 4 m/S 756 mmHg 72%
07:00 +8°C° 0 mm 4 m/S 756 mmHg 66%
08:00 +10°C° 0 mm 5 m/S 756 mmHg 59%
09:00 +13°C° 0 mm 5 m/S 756 mmHg 52%
10:00 +14°C° 0 mm 5 m/S 755 mmHg 47%
11:00 +16°C° 0 mm 5 m/S 755 mmHg 42%
12:00 +17°C° 0 mm 6 m/S 755 mmHg 37%
13:00 +19°C° 0 mm 5 m/S 755 mmHg 34%
14:00 +20°C° 0 mm 5 m/S 755 mmHg 32%
15:00 +20°C° 0 mm 5 m/S 754 mmHg 30%
16:00 +20°C° 0 mm 4 m/S 754 mmHg 35%
17:00 +19°C° 0 mm 4 m/S 754 mmHg 39%
18:00 +18°C° 0 mm 3 m/S 754 mmHg 44%
19:00 +15°C° 0 mm 4 m/S 754 mmHg 48%
20:00 +14°C° 0 mm 4 m/S 754 mmHg 53%
21:00 +13°C° 0 mm 4 m/S 754 mmHg 58%
22:00 +12°C° 0 mm 4 m/S 754 mmHg 59%
23:00 +11°C° 0 mm 4 m/S 754 mmHg 60%

14 April, Mittwoch

Zeit Temperatur Niederschläge Wind Luftdruck Luftfeuchtigkeit
00:00 +10°C° 0 mm 4 m/S 754 mmHg 62%
01:00 +10°C° 0 mm 4 m/S 754 mmHg 63%
02:00 +8°C° 0 mm 4 m/S 754 mmHg 64%
03:00 +9°C° 0 mm 3 m/S 754 mmHg 65%
04:00 +8°C° 0 mm 3 m/S 753 mmHg 66%
05:00 +8°C° 0 mm 3 m/S 753 mmHg 67%
06:00 +8°C° 0 mm 3 m/S 753 mmHg 68%
07:00 +10°C° 0 mm 4 m/S 753 mmHg 62%
08:00 +11°C° 0 mm 4 m/S 753 mmHg 56%
09:00 +13°C° 0 mm 5 m/S 753 mmHg 50%
10:00 +15°C° 0 mm 5 m/S 753 mmHg 45%
11:00 +16°C° 0 mm 5 m/S 753 mmHg 40%
12:00 +19°C° 0 mm 5 m/S 752 mmHg 35%
13:00 +20°C° 0 mm 5 m/S 752 mmHg 33%
14:00 +20°C° 0 mm 5 m/S 752 mmHg 31%
15:00 +21°C° 0 mm 5 m/S 751 mmHg 28%
16:00 +20°C° 0 mm 4 m/S 751 mmHg 33%
17:00 +19°C° 0 mm 4 m/S 751 mmHg 37%
18:00 +18°C° 0 mm 3 m/S 750 mmHg 41%
19:00 +17°C° 0 mm 3 m/S 750 mmHg 45%
20:00 +14°C° 0 mm 3 m/S 750 mmHg 50%
21:00 +13°C° 0 mm 3 m/S 750 mmHg 55%
22:00 +12°C° 0 mm 3 m/S 750 mmHg 58%
23:00 +11°C° 0 mm 3 m/S 750 mmHg 60%

15 April, Donnerstag

Zeit Temperatur Niederschläge Wind Luftdruck Luftfeuchtigkeit
00:00 +11°C° 0 mm 3 m/S 750 mmHg 63%
01:00 +10°C° 0 mm 3 m/S 750 mmHg 64%
02:00 +10°C° 0 mm 3 m/S 750 mmHg 65%
03:00 +9°C° 0 mm 3 m/S 750 mmHg 67%
04:00 +9°C° 0 mm 3 m/S 750 mmHg 68%
05:00 +9°C° 0 mm 3 m/S 749 mmHg 69%
06:00 +8°C° 0 mm 3 m/S 749 mmHg 70%
07:00 +10°C° 0 mm 3 m/S 749 mmHg 63%
08:00 +12°C° 0 mm 4 m/S 749 mmHg 57%
09:00 +13°C° 0 mm 4 m/S 749 mmHg 50%
10:00 +14°C° 0 mm 4 m/S 749 mmHg 46%
11:00 +17°C° 0 mm 4 m/S 748 mmHg 41%
12:00 +18°C° 0 mm 4 m/S 748 mmHg 37%
13:00 +18°C° 0 mm 4 m/S 747 mmHg 36%
14:00 +19°C° 0 mm 4 m/S 747 mmHg 35%
15:00 +19°C° 0 mm 3 m/S 747 mmHg 35%
16:00 +19°C° 0 mm 3 m/S 746 mmHg 38%
17:00 +18°C° 0 mm 3 m/S 745 mmHg 42%
18:00 +17°C° 0 mm 3 m/S 745 mmHg 45%
19:00 +16°C° 0 mm 3 m/S 744 mmHg 50%
20:00 +14°C° 0 mm 3 m/S 744 mmHg 56%
21:00 +12°C° 0 mm 4 m/S 744 mmHg 61%
22:00 +12°C° 0.1 mm 3 m/S 743 mmHg 62%
23:00 +12°C° 0.1 mm 3 m/S 743 mmHg 64%
Mehr zeigen

Wir brauchen deine Erlaubnis

Meteoprog und unser Service Anbieter werden persönliche Daten aufbewahren, so wie Cookies, Geräte Bezeichnung oder ähnliche Technologien von deinem Gerät und Prozess, so wie Persönliche Daten Inhalte und Werbungen, genauso wie social Media und den Verkehr zu analysieren.

  • Aufbewahrung und/oder Zugang zu deiner Geräte Informationen.

    Cookies, Geräte Bezeichnung oder andere Informationen, können aufbewahrt oder Zugang zu deinem Gerät erhalten, für den Grund, der oben angegeben wird.

  • Personalisierte Werbung und Inhalte, Messungen, Einblick in das Publikum und Produkt Entwicklung.

    Werbungen und Inhalte können personalisiert werden, basierend auf ein Profil. Mehr Daten können besser personalisierte Werbungen und Inhalte hinzufügen. Werbung und Inhalte können gezeigt und gemessen werden. Einblicke über das Publikum, welche die Werbung gesehen haben und den Inhalt, können abgeleitet werden. So wie Daten können genutzt werden, um es zu verbessern oder die Benutzer Erfahrung zu verbessern das System und die Software.

Wenn du “Ich stimme zu” klickst, erlaubst du uns, die Cookies zu benutzen die Geräte Bezeichnung, den Web oder ähnliche Technologien zu benutzen. Deine Settings, können in deinem Gerät bei deinem Browser geändert werden.

Für den bestimmten Zweck, berechtigten Interessen beruhen darauf, mehr als auf den Inhalt. Du kannst mehr darüber in unseren Privaten und Cookie Politik lesen.